Wetbulb
35.73 36.08 35.28 34.62 35.00 34.44 34.65 35.41 35.58 35.55 35.90 36.10 36.20 36.09 36.54 36.80 36.79 36.93 37.00 36.31 36.52 37.03
34.85 34.37 34.04 33.62 34.46 34.91 35.29 35.10 34.48 34.52 34.18 34.59 35.01 34.96 34.50 34.49 34.19 35.13 35.71 35.32 35.56 35.46
33.75 33.66 33.50 34.19 33.73 33.27 33.37 33.07 32.53 32.67 32.79 33.05 33.76 34.26 34.26 33.72 33.37 32.72 33.86 33.99 33.82 34.35
32.83 33.10 33.66 33.93 33.45 32.76 32.88 33.14 33.01 33.08 32.73 32.54 32.37 33.26 33.58 33.43 32.86 31.88 31.75 32.27 32.15 32.41
32.91 33.25 33.23 33.15 33.04 33.20 33.03 33.37 32.37 31.98 31.76 31.98 31.80 32.19 32.21 32.11 32.59 31.56 30.72 30.91 30.98 30.77
32.74 32.48 32.52 32.36 32.43 32.61 32.06 31.89 32.06 31.42 30.50 30.42 30.86 30.54 31.07 31.27 31.00 30.77 30.64 29.78 29.23 29.16
31.47 31.92 32.59 32.28 31.80 31.14 31.02 30.26 30.14 30.23 30.02 29.73 29.50 29.66 29.79 30.03 31.04 30.68 30.36 29.76 28.68 28.38
31.59 31.98 31.82 31.24 31.01 30.67 30.09 29.80 29.67 28.74 28.75 28.79 28.57 28.97 28.76 28.96 29.63 30.59 29.42 29.54 28.94 28.53
30.65 30.82 30.13 29.64 29.15 29.01 28.83 28.66 28.41 27.91 27.52 26.89 27.84 28.87 28.24 28.58 28.44 29.61 28.91 27.65 28.13 28.46
29.60 29.01 28.78 28.64 27.91 27.20 27.36 27.63 26.79 26.58 26.45 25.82 26.47 27.99 27.75 28.81 28.07 28.14 28.75 27.95 27.30 27.02
28.17 27.50 27.58 27.04 26.50 26.66 26.95 26.27 25.68 25.59 25.66 25.08 25.45 27.05 26.93 27.75 26.73 27.60 27.69 27.50 26.92 26.33
27.14 26.08 25.99 25.24 25.40 26.01 25.67 25.32 25.07 24.86 24.31 23.87 24.33 26.54 25.93 26.00 25.28 26.46 26.23 26.65 26.56 26.30
26.19 25.31 24.65 24.92 24.72 25.19 24.63 23.53 24.00 23.25 23.69 24.44 23.20 25.40 26.11 25.59 24.74 24.57 25.49 25.78 25.93 27.76
25.33 24.67 24.44 23.82 23.52 22.85 22.45 22.42 22.03 21.85 22.53 22.50 23.03 22.72 25.43 26.26 24.68 24.98 25.16 24.92 24.66 25.99
MSLP
1020.95 1020.80 1021.14 1021.51 1021.50 1021.57 1021.61 1021.70 1021.86 1021.68 1021.54 1021.29 1021.14 1020.99 1020.74 1020.54 1020.50 1020.19 1020.20 1019.96 1019.75 1019.51
1020.73 1020.97 1021.27 1021.56 1021.60 1021.61 1021.72 1021.78 1021.83 1021.63 1021.69 1021.60 1021.39 1021.18 1020.93 1020.77 1020.84 1020.49 1020.29 1020.28 1020.01 1019.74
1020.95 1021.15 1021.44 1021.74 1021.75 1021.79 1021.91 1022.03 1022.02 1021.93 1021.91 1021.67 1021.44 1021.17 1020.96 1020.91 1020.95 1020.65 1020.39 1020.26 1020.28 1020.14
1020.88 1021.27 1021.54 1021.57 1021.78 1021.83 1021.89 1021.90 1021.91 1021.89 1021.79 1021.63 1021.51 1021.25 1021.07 1020.97 1020.92 1020.86 1020.69 1020.59 1020.47 1020.34
1020.93 1021.27 1021.43 1021.63 1021.80 1021.80 1021.78 1021.70 1021.85 1021.85 1021.77 1021.62 1021.56 1021.51 1021.31 1021.30 1021.17 1021.01 1020.90 1020.92 1020.78 1020.48
1021.21 1021.37 1021.54 1021.73 1021.74 1021.80 1021.95 1022.04 1021.94 1021.79 1021.73 1021.60 1021.55 1021.48 1021.53 1021.43 1021.52 1021.28 1021.16 1021.18 1020.97 1020.78
1021.22 1021.62 1021.72 1022.12 1022.06 1021.89 1022.01 1022.05 1022.15 1022.27 1021.91 1021.60 1021.65 1021.57 1021.45 1021.41 1021.40 1021.33 1021.21 1021.19 1021.11 1020.95
1021.46 1021.94 1021.90 1022.21 1022.16 1021.87 1021.90 1022.09 1022.13 1022.15 1022.18 1021.74 1021.67 1021.51 1021.29 1021.27 1021.28 1021.21 1021.08 1021.17 1021.02 1020.92
1021.54 1021.79 1021.90 1022.03 1022.14 1022.04 1021.95 1021.88 1021.84 1022.03 1022.00 1021.88 1021.60 1021.49 1021.57 1021.43 1021.18 1020.92 1020.89 1020.91 1020.82 1020.69
1021.72 1021.75 1021.80 1021.81 1021.75 1021.71 1021.86 1021.95 1021.67 1021.78 1021.74 1021.59 1021.44 1021.43 1021.40 1021.20 1020.96 1020.61 1020.56 1020.49 1020.48 1020.47
1021.81 1021.87 1021.85 1021.67 1021.46 1021.48 1021.38 1021.75 1021.50 1021.50 1021.37 1021.30 1021.17 1021.16 1021.17 1021.05 1020.75 1020.32 1020.27 1020.30 1020.30 1020.30
1021.64 1021.88 1021.69 1021.38 1021.17 1021.17 1021.12 1021.55 1021.28 1021.19 1021.08 1020.96 1020.80 1020.80 1020.86 1020.78 1020.45 1019.98 1019.87 1019.89 1019.98 1020.04
1021.68 1021.74 1021.51 1021.11 1020.88 1020.90 1021.24 1021.28 1021.00 1020.85 1020.77 1020.61 1020.50 1020.57 1020.43 1020.40 1020.18 1019.66 1019.41 1019.46 1019.55 1019.62
1021.55 1021.48 1021.26 1020.95 1020.85 1020.95 1020.96 1020.91 1020.71 1020.56 1020.39 1020.32 1020.20 1020.13 1020.01 1019.93 1019.73 1019.39 1019.12 1019.02 1019.07 1019.22
Wind_Speed
4 2 2 2 2 3 3 2 4 5 6 7 7 7 6 5 5 5 5 5 5 4
4 3 2 3 1 1 2 3 4 5 5 6 6 5 5 4 5 5 4 4 4 4
4 4 3 2 1 1 1 2 3 4 5 5 5 5 5 4 4 5 3 3 4 4
5 5 4 3 2 2 2 3 5 5 5 5 5 6 6 5 4 5 5 4 4 4
6 5 4 3 2 3 5 5 5 5 5 5 6 6 7 7 7 6 5 6 6 4
5 5 4 3 3 4 5 6 6 6 5 5 5 6 7 5 6 6 5 5 5 5
4 5 3 4 4 4 5 6 7 7 6 5 6 6 6 6 6 5 5 4 4 4
4 3 4 5 5 5 5 6 7 7 7 6 6 6 5 6 7 7 5 6 5 4
4 4 4 5 6 6 6 6 7 7 7 7 6 7 8 9 8 8 6 6 6 5
5 5 6 6 6 6 8 7 7 8 8 8 7 9 9 11 8 8 7 7 6 6
6 7 6 6 6 7 7 8 8 8 8 7 7 10 10 11 9 7 7 6 6 7
6 7 7 7 7 7 7 9 8 8 8 9 8 11 10 10 8 8 8 6 6 7
6 8 9 8 7 7 8 10 7 9 8 10 8 11 11 10 7 8 6 5 6 11
8 9 9 8 8 9 9 9 8 9 7 8 9 9 13 12 8 7 6 5 5 5
Wind_Direction
177 157 128 73 90 62 47 40 359 353 350 353 350 345 342 335 338 339 348 359 356 336
165 163 137 139 116 62 20 344 349 347 340 335 329 337 337 333 329 322 337 345 342 344
164 155 156 203 209 353 344 336 333 335 323 317 317 321 320 315 333 327 345 348 334 335
173 181 197 203 207 261 296 307 303 303 306 310 315 316 312 319 331 328 335 348 334 333
186 199 204 215 249 291 299 304 304 308 305 304 303 301 299 310 319 312 320 319 317 326
214 210 221 224 263 277 302 305 299 291 293 300 302 298 293 293 289 300 303 307 313 320
230 243 254 269 285 303 301 300 293 293 291 293 291 285 281 275 294 271 293 299 297 299
223 255 267 289 292 293 285 288 289 285 284 281 281 276 292 302 295 277 270 281 275 270
237 247 263 280 288 293 287 277 273 274 277 279 276 281 282 283 285 295 253 264 272 274
257 267 269 273 274 277 279 280 276 271 269 271 271 273 281 283 286 287 261 264 275 276
268 270 271 273 276 280 276 275 271 271 275 271 269 272 280 282 277 273 265 268 272 270
261 269 270 271 275 278 284 270 265 264 267 267 270 272 271 273 273 255 254 258 260 257
273 272 274 277 283 284 271 271 268 268 268 274 272 273 267 263 264 263 251 246 243 248
273 274 279 285 281 274 271 269 268 270 267 265 262 263 262 253 255 259 256 246 235 225